START_TIME,STEP,MOV.,M34,t_acc.,L5,t_acc.,L18,t_acc.,L14,t_acc.
1979-03-06 21:00:22.350 ,4,1,0.,12.0,0.,12.0,0.,12.0,1.,12.0
1979-03-06 21:00:34.350 ,4,1,1.,12.0,0.,12.0,0.,12.0,0.,12.0
1979-03-06 21:00:46.350 ,5,1,3.,12.0,0.,12.0,0.,12.0,0.,12.0
1979-03-06 21:00:58.350 ,5,1,2.,12.0,1.,12.0,0.,12.0,0.,12.0
1979-03-06 21:01:10.350 ,6,1,1.,12.0,0.,12.0,0.,12.0,0.,12.0
1979-03-06 21:01:22.350 ,6,1,0.,12.0,0.,12.0,0.,12.0,0.,12.0
1979-03-06 21:01:34.350 ,7,1,1.,12.0,1.,12.0,0.,12.0,0.,12.0
1979-03-06 21:01:46.350 ,7,1,1.,12.0,0.,12.0,0.,12.0,0.,12.0
1979-03-06 21:01:58.350 ,7,1,0.,12.0,0.,12.0,0.,12.0,0.,12.0
1979-03-06 21:02:10.350 ,7,1,0.,12.0,0.,12.0,0.,12.0,0.,12.0
1979-03-06 21:02:22.350 ,6,1,0.,12.0,0.,12.0,0.,12.0,0.,12.0
1979-03-06 21:02:34.350 ,6,1,1.,12.0,1.,12.0,0.,12.0,0.,12.0
1979-03-06 21:02:46.350 ,5,1,0.,12.0,0.,12.0,0.,12.0,0.,12.0
1979-03-06 21:02:58.350 ,5,1,1.,12.0,1.,12.0,0.,12.0,0.,12.0
1979-03-06 21:03:10.350 ,4,1,5.,12.0,1.,12.0,0.,12.0,0.,12.0
1979-03-06 21:03:22.350 ,4,1,3.,12.0,0.,12.0,0.,12.0,0.,12.0
1979-03-06 21:03:34.350 ,3,1,,0,,0,,0,,0
1979-03-06 21:03:46.350 ,3,1,2.,12.0,2.,12.0,0.,12.0,0.,12.0
1979-03-06 21:03:58.350 ,2,1,3.,12.0,0.,12.0,0.,12.0,0.,12.0
1979-03-06 21:04:10.350 ,2,1,2.,12.0,0.,12.0,0.,12.0,0.,12.0
1979-03-06 21:04:22.350 ,1,1,2.,12.0,1.,12.0,0.,12.0,0.,12.0
1979-03-06 21:04:34.350 ,1,1,1.,12.0,0.,12.0,0.,12.0,0.,12.0
1979-03-06 21:04:46.350 ,0,1,1.,12.0,0.,12.0,0.,12.0,0.,12.0
1979-03-06 21:04:58.350 ,0,1,1.,12.0,0.,12.0,0.,12.0,1.,12.0
1979-03-06 21:05:10.350 ,0,1,1.,12.0,0.,12.0,0.,12.0,0.,12.0
1979-03-06 21:05:22.350 ,0,1,0.,12.0,0.,12.0,0.,12.0,1.,12.0
1979-03-06 21:05:34.350 ,1,1,2.,12.0,0.,12.0,0.,12.0,0.,12.0
1979-03-06 21:05:46.350 ,1,1,1.,12.0,0.,12.0,0.,12.0,0.,12.0
1979-03-06 21:05:58.350 ,2,1,1.,12.0,0.,12.0,0.,12.0,0.,12.0
1979-03-06 21:06:10.350 ,2,1,2.,12.0,0.,12.0,0.,12.0,0.,12.0
1979-03-06 21:06:22.350 ,3,1,0.,12.0,0.,12.0,0.,12.0,0.,12.0
1979-03-06 21:06:34.350 ,3,1,3.,12.0,1.,12.0,0.,12.0,0.,12.0
1979-03-06 21:06:46.350 ,4,1,2.,12.0,0.,12.0,0.,12.0,0.,12.0
1979-03-06 21:06:58.350 ,4,1,4.,12.0,0.,12.0,0.,12.0,0.,12.0
1979-03-06 21:07:10.350 ,5,1,4.,12.0,3.,12.0,0.,12.0,0.,12.0
1979-03-06 21:07:22.350 ,5,1,9.,12.0,0.,12.0,0.,12.0,0.,12.0
1979-03-06 21:07:34.350 ,6,1,5.,12.0,1.,12.0,0.,12.0,0.,12.0
1979-03-06 21:07:46.350 ,6,1,1.,12.0,0.,12.0,0.,12.0,0.,12.0
1979-03-06 21:07:58.350 ,7,1,1.,12.0,0.,12.0,0.,12.0,0.,12.0
1979-03-06 21:08:10.350 ,7,1,0.,12.0,0.,12.0,0.,12.0,0.,12.0
1979-03-06 21:08:22.350 ,7,1,0.,12.0,0.,12.0,0.,12.0,0.,12.0
1979-03-06 21:08:34.350 ,7,1,0.,12.0,0.,12.0,0.,12.0,0.,12.0
1979-03-06 21:08:46.350 ,6,1,0.,12.0,0.,12.0,0.,12.0,0.,12.0
1979-03-06 21:08:58.350 ,6,1,2.,12.0,0.,12.0,0.,12.0,0.,12.0
1979-03-06 21:09:10.350 ,5,1,3.,12.0,0.,12.0,0.,12.0,0.,12.0
1979-03-06 21:09:22.350 ,5,1,5.,12.0,0.,12.0,0.,12.0,0.,12.0
1979-03-06 21:09:34.350 ,4,1,3.,12.0,2.,12.0,0.,12.0,0.,12.0
1979-03-06 21:09:46.350 ,4,1,4.,12.0,0.,12.0,0.,12.0,0.,12.0
1979-03-06 21:09:58.350 ,3,1,2.,12.0,1.,12.0,0.,12.0,0.,12.0
1979-03-06 21:10:10.350 ,3,1,5.,12.0,1.,12.0,0.,12.0,0.,12.0
1979-03-06 21:10:22.350 ,2,1,6.,12.0,1.,12.0,0.,12.0,0.,12.0
1979-03-06 21:10:34.350 ,2,1,3.,12.0,1.,12.0,0.,12.0,0.,12.0
1979-03-06 21:10:46.350 ,1,1,2.,12.0,1.,12.0,0.,12.0,0.,12.0
1979-03-06 21:10:58.350 ,1,1,1.,12.0,0.,12.0,0.,12.0,0.,12.0
1979-03-06 21:11:10.350 ,0,1,3.,12.0,0.,12.0,0.,12.0,0.,12.0
1979-03-06 21:11:22.350 ,0,1,2.,12.0,1.,12.0,0.,12.0,0.,12.0
1979-03-06 21:11:34.350 ,0,1,1.,12.0,0.,12.0,0.,12.0,0.,12.0
1979-03-06 21:11:46.350 ,0,1,2.,12.0,0.,12.0,0.,12.0,0.,12.0
1979-03-06 21:11:58.350 ,1,1,2.,12.0,0.,12.0,0.,12.0,0.,12.0
1979-03-06 21:12:10.350 ,1,1,0.,12.0,0.,12.0,0.,12.0,0.,12.0
1979-03-06 21:12:22.350 ,2,1,2.,12.0,0.,12.0,0.,12.0,0.,12.0
1979-03-06 21:12:34.350 ,2,1,0.,12.0,0.,12.0,0.,12.0,0.,12.0
1979-03-06 21:12:46.350 ,3,1,1.,12.0,0.,12.0,0.,12.0,0.,12.0
1979-03-06 21:12:58.350 ,3,1,3.,12.0,0.,12.0,0.,12.0,0.,12.0
1979-03-06 21:13:10.350 ,4,1,3.,12.0,1.,12.0,0.,12.0,0.,12.0
1979-03-06 21:13:22.350 ,4,1,6.,12.0,0.,12.0,0.,12.0,0.,12.0
1979-03-06 21:13:34.350 ,5,1,4.,12.0,1.,12.0,0.,12.0,0.,12.0
1979-03-06 21:13:46.350 ,5,1,2.,12.0,1.,12.0,0.,12.0,0.,12.0
1979-03-06 21:13:58.350 ,6,1,3.,12.0,0.,12.0,0.,12.0,0.,12.0
1979-03-06 21:14:10.350 ,6,1,2.,12.0,0.,12.0,0.,12.0,0.,12.0
1979-03-06 21:14:22.350 ,7,1,1.,12.0,0.,12.0,0.,12.0,0.,12.0
1979-03-06 21:14:34.350 ,7,1,0.,12.0,0.,12.0,0.,12.0,0.,12.0
1979-03-06 21:14:46.350 ,7,1,0.,12.0,0.,12.0,0.,12.0,0.,12.0
1979-03-06 21:14:58.350 ,7,1,0.,12.0,0.,12.0,0.,12.0,0.,12.0
1979-03-06 21:15:10.350 ,6,1,0.,12.0,0.,12.0,0.,12.0,0.,12.0
1979-03-06 21:15:22.350 ,6,1,1.,12.0,0.,12.0,0.,12.0,0.,12.0
1979-03-06 21:15:34.350 ,5,1,4.,12.0,1.,12.0,0.,12.0,0.,12.0
1979-03-06 21:15:46.350 ,5,1,3.,12.0,1.,12.0,0.,12.0,0.,12.0
1979-03-06 21:15:58.350 ,4,1,4.,12.0,0.,12.0,0.,12.0,0.,12.0
1979-03-06 21:16:10.350 ,4,1,6.,12.0,0.,12.0,0.,12.0,0.,12.0
1979-03-06 21:16:22.350 ,3,1,5.,12.0,0.,12.0,0.,12.0,0.,12.0
1979-03-06 21:16:34.350 ,3,1,4.,12.0,1.,12.0,0.,12.0,0.,12.0
1979-03-06 21:16:46.350 ,2,1,4.,12.0,0.,12.0,0.,12.0,0.,12.0
1979-03-06 21:16:58.350 ,2,1,4.,12.0,1.,12.0,0.,12.0,0.,12.0
1979-03-06 21:17:10.350 ,1,1,4.,12.0,2.,12.0,0.,12.0,0.,12.0
1979-03-06 21:17:22.350 ,1,1,7.,12.0,0.,12.0,0.,12.0,0.,12.0
1979-03-06 21:17:34.350 ,0,1,0.,12.0,0.,12.0,0.,12.0,0.,12.0
1979-03-06 21:17:46.350 ,0,1,0.,12.0,0.,12.0,0.,12.0,0.,12.0
1979-03-06 21:17:58.350 ,0,1,1.,12.0,0.,12.0,0.,12.0,0.,12.0
1979-03-06 21:18:10.350 ,0,1,1.,12.0,0.,12.0,0.,12.0,0.,12.0
1979-03-06 21:18:22.350 ,1,1,4.,12.0,0.,12.0,0.,12.0,0.,12.0
1979-03-06 21:18:34.350 ,1,1,1.,12.0,1.,12.0,0.,12.0,0.,12.0
1979-03-06 21:18:46.350 ,2,1,1.,12.0,2.,12.0,0.,12.0,0.,12.0
1979-03-06 21:18:58.350 ,2,1,3.,12.0,1.,12.0,0.,12.0,0.,12.0
1979-03-06 21:19:10.350 ,3,1,5.,12.0,2.,12.0,0.,12.0,0.,12.0
1979-03-06 21:19:22.350 ,3,1,1.,12.0,1.,12.0,0.,12.0,0.,12.0
1979-03-06 21:19:34.350 ,4,1,7.,12.0,1.,12.0,0.,12.0,0.,12.0
1979-03-06 21:19:46.350 ,4,1,5.,12.0,1.,12.0,0.,12.0,0.,12.0
1979-03-06 21:19:58.350 ,5,1,9.,12.0,3.,12.0,0.,12.0,0.,12.0
1979-03-06 21:20:10.350 ,5,1,3.,12.0,1.,12.0,0.,12.0,0.,12.0
1979-03-06 21:20:22.350 ,6,1,2.,12.0,1.,12.0,0.,12.0,0.,12.0
1979-03-06 21:20:34.350 ,6,1,3.,12.0,1.,12.0,0.,12.0,0.,12.0
1979-03-06 21:20:46.350 ,7,1,2.,12.0,2.,12.0,0.,12.0,0.,12.0
1979-03-06 21:20:58.350 ,7,1,1.,12.0,1.,12.0,0.,12.0,0.,12.0
1979-03-06 21:21:10.350 ,7,1,0.,12.0,0.,12.0,0.,12.0,0.,12.0
1979-03-06 21:21:22.350 ,7,1,0.,12.0,0.,12.0,0.,12.0,0.,12.0
1979-03-06 21:21:34.350 ,6,1,0.,12.0,0.,12.0,0.,12.0,0.,12.0
1979-03-06 21:21:46.350 ,6,1,1.,12.0,0.,12.0,0.,12.0,0.,12.0
1979-03-06 21:21:58.350 ,5,1,1.,12.0,0.,12.0,0.,12.0,0.,12.0
1979-03-06 21:22:10.350 ,5,1,2.,12.0,0.,12.0,0.,12.0,0.,12.0
1979-03-06 21:22:22.350 ,4,1,4.,12.0,0.,12.0,0.,12.0,0.,12.0
1979-03-06 21:22:34.350 ,4,1,6.,12.0,4.,12.0,0.,12.0,0.,12.0
1979-03-06 21:22:46.350 ,3,1,5.,12.0,4.,12.0,0.,12.0,0.,12.0
1979-03-06 21:22:58.350 ,3,1,6.,12.0,1.,12.0,0.,12.0,0.,12.0
1979-03-06 21:23:10.350 ,2,1,7.,12.0,1.,12.0,0.,12.0,0.,12.0
1979-03-06 21:23:22.350 ,2,1,1.,12.0,0.,12.0,0.,12.0,0.,12.0
1979-03-06 21:23:34.350 ,1,1,4.,12.0,0.,12.0,0.,12.0,1.,12.0
1979-03-06 21:23:46.350 ,1,1,3.,12.0,1.,12.0,0.,12.0,0.,12.0
1979-03-06 21:23:58.350 ,0,1,1.,12.0,0.,12.0,0.,12.0,0.,12.0
1979-03-06 21:24:10.350 ,0,1,3.,12.0,1.,12.0,0.,12.0,0.,12.0
1979-03-06 21:24:22.350 ,0,1,2.,12.0,1.,12.0,0.,12.0,0.,12.0
1979-03-06 21:24:34.350 ,0,1,1.,12.0,0.,12.0,0.,12.0,0.,12.0
1979-03-06 21:24:46.350 ,0,0,1.,12.0,2.,12.0,0.,12.0,0.,12.0
1979-03-06 21:24:58.350 ,0,0,1.,12.0,0.,12.0,0.,12.0,0.,12.0
1979-03-06 21:25:10.350 ,0,0,,0,,0,,0,,0
1979-03-06 21:25:22.350 ,0,0,,0,,0,,0,,0
1979-03-06 21:27:10.950 ,0,0,,0,,0,,0,,0
1979-03-06 21:27:22.950 ,0,0,,0,,0,,0,,0
1979-03-06 21:27:34.350 ,0,0,,0,,0,,0,,0
1979-03-06 21:27:46.350 ,0,0,,0,,0,,0,,0
1979-03-06 21:29:35.550 ,0,0,,0,,0,,0,,0
1979-03-06 21:29:47.550 ,0,0,,0,,0,,0,,0
1979-03-06 21:29:58.350 ,0,0,,0,,0,,0,,0
1979-03-06 21:30:10.350 ,0,0,,0,,0,,0,,0
1979-03-06 21:30:22.950 ,0,0,,0,,0,,0,,0
1979-03-06 21:30:34.950 ,0,0,,0,,0,,0,,0
1979-03-06 21:30:46.350 ,0,0,,0,,0,,0,,0
1979-03-06 21:30:58.350 ,0,0,,0,,0,,0,,0
1979-03-06 21:31:10.350 ,0,0,,0,,0,,0,,0
1979-03-06 21:31:22.350 ,0,0,,0,,0,,0,,0
1979-03-06 21:31:34.350 ,0,0,,0,,0,,0,,0
1979-03-06 21:31:46.350 ,0,0,,0,,0,,0,,0
1979-03-06 21:31:58.350 ,0,0,,0,,0,,0,,0
1979-03-06 21:32:10.350 ,0,0,4.,12.0,0.,12.0,0.,12.0,0.,12.0
1979-03-06 21:32:22.350 ,4,1,3.,12.0,1.,12.0,0.,12.0,0.,12.0
1979-03-06 21:32:34.350 ,4,1,4.,12.0,1.,12.0,0.,12.0,0.,12.0
1979-03-06 21:32:46.350 ,5,1,2.,12.0,1.,12.0,0.,12.0,0.,12.0
1979-03-06 21:32:58.350 ,5,1,7.,12.0,1.,12.0,0.,12.0,0.,12.0
1979-03-06 21:33:10.350 ,6,1,4.,12.0,0.,12.0,0.,12.0,0.,12.0
1979-03-06 21:33:22.350 ,6,1,2.,12.0,1.,12.0,0.,12.0,0.,12.0
1979-03-06 21:33:34.350 ,7,1,3.,12.0,0.,12.0,0.,12.0,0.,12.0
1979-03-06 21:33:46.350 ,7,1,1.,12.0,0.,12.0,0.,12.0,0.,12.0
1979-03-06 21:33:58.350 ,7,1,0.,12.0,0.,12.0,0.,12.0,0.,12.0
1979-03-06 21:34:10.350 ,7,1,0.,12.0,0.,12.0,0.,12.0,0.,12.0
1979-03-06 21:34:22.350 ,6,1,0.,12.0,0.,12.0,0.,12.0,0.,12.0
1979-03-06 21:34:34.350 ,6,1,3.,12.0,0.,12.0,0.,12.0,0.,12.0
1979-03-06 21:34:46.350 ,5,1,0.,12.0,0.,12.0,0.,12.0,0.,12.0
1979-03-06 21:34:58.350 ,5,1,4.,12.0,0.,12.0,0.,12.0,0.,12.0
1979-03-06 21:35:10.350 ,4,1,4.,12.0,0.,12.0,0.,12.0,0.,12.0
1979-03-06 21:35:22.350 ,4,1,4.,12.0,0.,12.0,0.,12.0,0.,12.0
1979-03-06 21:35:34.350 ,3,1,4.,12.0,2.,12.0,0.,12.0,0.,12.0
1979-03-06 21:35:46.350 ,3,1,9.,12.0,0.,12.0,0.,12.0,0.,12.0
1979-03-06 21:35:58.350 ,2,1,8.,12.0,0.,12.0,0.,12.0,0.,12.0
1979-03-06 21:36:10.350 ,2,1,1.,12.0,0.,12.0,0.,12.0,0.,12.0
1979-03-06 21:36:22.350 ,1,1,2.,12.0,1.,12.0,0.,12.0,0.,12.0
1979-03-06 21:36:34.350 ,1,1,2.,12.0,1.,12.0,0.,12.0,0.,12.0
1979-03-06 21:36:46.350 ,0,1,1.,12.0,0.,12.0,0.,12.0,0.,12.0
1979-03-06 21:36:58.350 ,0,1,2.,12.0,0.,12.0,0.,12.0,0.,12.0
1979-03-06 21:37:10.350 ,0,1,2.,12.0,0.,12.0,0.,12.0,0.,12.0
1979-03-06 21:37:22.350 ,0,1,2.,12.0,0.,12.0,0.,12.0,0.,12.0
1979-03-06 21:37:34.350 ,1,1,2.,12.0,1.,12.0,0.,12.0,0.,12.0
1979-03-06 21:37:46.350 ,1,1,1.,12.0,1.,12.0,0.,12.0,0.,12.0
1979-03-06 21:37:58.350 ,0,0,0.,12.0,0.,12.0,0.,12.0,0.,12.0
1979-03-06 21:38:10.350 ,0,0,,0,,0,,0,,0
1979-03-06 21:44:12.760 ,0,0,,0,,0,,0,,0
1979-03-06 21:44:24.760 ,0,0,,0,,0,,0,,0
1979-03-06 21:44:22.360 ,2,1,4.,12.0,1.,12.0,0.,12.0,0.,12.0
1979-03-06 21:44:34.360 ,2,1,2.,12.0,0.,12.0,0.,12.0,1.,12.0
1979-03-06 21:44:46.360 ,3,1,2.,12.0,0.,12.0,0.,12.0,0.,12.0
1979-03-06 21:44:58.360 ,3,1,3.,12.0,1.,12.0,0.,12.0,0.,12.0
1979-03-06 21:45:10.360 ,4,1,7.,12.0,2.,12.0,0.,12.0,0.,12.0
1979-03-06 21:45:22.360 ,4,1,10.,12.0,2.,12.0,0.,12.0,0.,12.0
1979-03-06 21:45:34.360 ,5,1,18.,12.0,3.,12.0,0.,12.0,0.,12.0
1979-03-06 21:45:46.360 ,5,1,12.,12.0,3.,12.0,0.,12.0,0.,12.0
1979-03-06 21:45:58.360 ,6,1,7.,12.0,1.,12.0,0.,12.0,0.,12.0
1979-03-06 21:46:10.360 ,6,1,11.,12.0,1.,12.0,0.,12.0,0.,12.0
1979-03-06 21:46:22.360 ,7,1,8.,12.0,0.,12.0,0.,12.0,0.,12.0
1979-03-06 21:46:34.360 ,7,1,1.,12.0,0.,12.0,0.,12.0,0.,12.0
1979-03-06 21:46:46.360 ,7,1,0.,12.0,0.,12.0,0.,12.0,0.,12.0
1979-03-06 21:46:58.360 ,7,1,0.,12.0,0.,12.0,0.,12.0,0.,12.0
1979-03-06 21:47:10.360 ,6,1,0.,12.0,0.,12.0,0.,12.0,0.,12.0
1979-03-06 21:47:22.360 ,6,1,4.,12.0,1.,12.0,0.,12.0,0.,12.0
1979-03-06 21:47:34.360 ,5,1,3.,12.0,0.,12.0,0.,12.0,0.,12.0
1979-03-06 21:47:46.360 ,5,1,7.,12.0,0.,12.0,0.,12.0,0.,12.0
1979-03-06 21:47:58.360 ,4,1,5.,12.0,3.,12.0,0.,12.0,0.,12.0
1979-03-06 21:48:10.360 ,4,1,13.,12.0,2.,12.0,0.,12.0,0.,12.0
1979-03-06 21:48:22.360 ,3,1,6.,12.0,1.,12.0,0.,12.0,0.,12.0
1979-03-06 21:48:34.360 ,3,1,5.,12.0,1.,12.0,0.,12.0,0.,12.0
1979-03-06 21:48:46.360 ,2,1,12.,12.0,1.,12.0,0.,12.0,0.,12.0
1979-03-06 21:48:58.360 ,2,1,7.,12.0,0.,12.0,0.,12.0,0.,12.0
1979-03-06 21:49:10.360 ,1,1,6.,12.0,3.,12.0,0.,12.0,0.,12.0
1979-03-06 21:49:22.360 ,1,1,7.,12.0,4.,12.0,0.,12.0,0.,12.0
1979-03-06 21:49:34.360 ,0,1,6.,12.0,1.,12.0,0.,12.0,0.,12.0
1979-03-06 21:49:46.360 ,0,1,1.,12.0,0.,12.0,0.,12.0,0.,12.0
1979-03-06 21:49:58.360 ,0,1,1.,12.0,0.,12.0,0.,12.0,0.,12.0
1979-03-06 21:50:10.360 ,0,1,1.,12.0,0.,12.0,0.,12.0,0.,12.0
1979-03-06 21:50:22.360 ,1,1,2.,12.0,0.,12.0,0.,12.0,0.,12.0
1979-03-06 21:50:34.360 ,1,1,4.,12.0,0.,12.0,0.,12.0,0.,12.0
1979-03-06 21:50:46.360 ,2,1,5.,12.0,1.,12.0,0.,12.0,0.,12.0
1979-03-06 21:50:58.360 ,2,1,2.,12.0,0.,12.0,0.,12.0,0.,12.0
1979-03-06 21:51:10.360 ,3,1,4.,12.0,0.,12.0,0.,12.0,0.,12.0
1979-03-06 21:51:22.360 ,3,1,6.,12.0,0.,12.0,0.,12.0,0.,12.0
1979-03-06 21:51:34.360 ,4,1,6.,12.0,1.,12.0,0.,12.0,0.,12.0
1979-03-06 21:51:46.360 ,4,1,3.,12.0,1.,12.0,0.,12.0,0.,12.0
1979-03-06 21:51:58.360 ,5,1,5.,12.0,2.,12.0,0.,12.0,0.,12.0
1979-03-06 21:52:10.360 ,5,1,4.,12.0,1.,12.0,0.,12.0,0.,12.0
1979-03-06 21:52:22.360 ,6,1,5.,12.0,1.,12.0,0.,12.0,0.,12.0
1979-03-06 21:52:34.360 ,6,1,3.,12.0,2.,12.0,0.,12.0,0.,12.0
1979-03-06 21:52:46.360 ,7,1,1.,12.0,1.,12.0,0.,12.0,0.,12.0
1979-03-06 21:52:58.360 ,7,1,0.,12.0,0.,12.0,0.,12.0,0.,12.0
1979-03-06 21:53:10.360 ,7,1,0.,12.0,0.,12.0,0.,12.0,0.,12.0
1979-03-06 21:53:22.360 ,7,1,0.,12.0,0.,12.0,0.,12.0,0.,12.0
1979-03-06 21:53:34.360 ,6,1,0.,12.0,0.,12.0,0.,12.0,0.,12.0
1979-03-06 21:53:46.360 ,6,1,2.,12.0,1.,12.0,0.,12.0,0.,12.0
1979-03-06 21:53:58.360 ,5,1,2.,12.0,1.,12.0,0.,12.0,0.,12.0
1979-03-06 21:54:10.360 ,5,1,6.,12.0,2.,12.0,0.,12.0,0.,12.0
1979-03-06 21:54:22.360 ,0,0,3.,12.0,1.,12.0,0.,12.0,0.,12.0
1979-03-06 21:54:34.360 ,0,0,8.,12.0,0.,12.0,0.,12.0,0.,12.0
1979-03-06 21:54:46.360 ,3,1,,0,,0,,0,,0
1979-03-06 21:54:58.360 ,3,1,5.,12.0,1.,12.0,0.,12.0,0.,12.0
1979-03-06 21:55:10.360 ,2,1,8.,12.0,1.,12.0,0.,12.0,0.,12.0
1979-03-06 21:55:22.360 ,2,1,5.,12.0,1.,12.0,0.,12.0,0.,12.0
1979-03-06 21:55:34.360 ,1,1,2.,12.0,0.,12.0,0.,12.0,0.,12.0
1979-03-06 21:55:46.360 ,1,1,2.,12.0,0.,12.0,0.,12.0,0.,12.0
1979-03-06 21:55:58.360 ,0,1,1.,12.0,0.,12.0,0.,12.0,0.,12.0
1979-03-06 21:56:10.360 ,0,1,2.,12.0,1.,12.0,0.,12.0,0.,12.0
1979-03-06 21:56:22.360 ,0,1,0.,12.0,0.,12.0,0.,12.0,0.,12.0
1979-03-06 21:56:34.360 ,0,1,2.,12.0,2.,12.0,0.,12.0,0.,12.0
1979-03-06 21:56:46.360 ,1,1,2.,12.0,1.,12.0,0.,12.0,0.,12.0
1979-03-06 21:56:58.360 ,1,1,2.,12.0,0.,12.0,0.,12.0,0.,12.0
1979-03-06 21:57:10.360 ,2,1,2.,12.0,0.,12.0,0.,12.0,0.,12.0
1979-03-06 21:57:22.360 ,2,1,4.,12.0,1.,12.0,0.,12.0,0.,12.0
1979-03-06 21:57:34.360 ,3,1,6.,12.0,1.,12.0,0.,12.0,0.,12.0
1979-03-06 21:57:46.360 ,3,1,5.,12.0,3.,12.0,0.,12.0,0.,12.0
1979-03-06 21:57:58.360 ,4,1,6.,12.0,2.,12.0,0.,12.0,0.,12.0
1979-03-06 21:58:10.360 ,4,1,9.,12.0,0.,12.0,0.,12.0,0.,12.0
1979-03-06 21:58:22.360 ,5,1,8.,12.0,2.,12.0,0.,12.0,0.,12.0
1979-03-06 21:58:34.360 ,5,1,7.,12.0,0.,12.0,0.,12.0,0.,12.0
1979-03-06 21:58:46.360 ,6,1,16.,12.0,0.,12.0,0.,12.0,0.,12.0
1979-03-06 21:58:58.360 ,6,1,4.,12.0,0.,12.0,0.,12.0,0.,12.0
1979-03-06 21:59:10.360 ,7,1,4.,12.0,1.,12.0,0.,12.0,0.,12.0
1979-03-06 21:59:22.360 ,7,1,1.,12.0,0.,12.0,0.,12.0,0.,12.0
1979-03-06 21:59:34.360 ,7,1,0.,12.0,0.,12.0,0.,12.0,0.,12.0
1979-03-06 21:59:46.360 ,7,1,0.,12.0,0.,12.0,0.,12.0,0.,12.0
1979-03-06 21:59:58.360 ,6,1,0.,12.0,0.,12.0,0.,12.0,0.,12.0
1979-03-06 22:00:10.360 ,6,1,0.,12.0,1.,12.0,0.,12.0,0.,12.0
1979-03-06 22:00:22.360 ,5,1,1.,12.0,1.,12.0,0.,12.0,0.,12.0
1979-03-06 22:00:34.360 ,5,1,11.,12.0,2.,12.0,0.,12.0,0.,12.0
1979-03-06 22:00:46.360 ,4,1,11.,12.0,1.,12.0,0.,12.0,0.,12.0
1979-03-06 22:00:58.360 ,4,1,11.,12.0,2.,12.0,0.,12.0,0.,12.0
1979-03-06 22:01:10.360 ,3,1,16.,12.0,1.,12.0,0.,12.0,0.,12.0
1979-03-06 22:01:22.360 ,3,1,13.,12.0,0.,12.0,0.,12.0,0.,12.0
1979-03-06 22:01:34.360 ,2,1,12.,12.0,0.,12.0,0.,12.0,0.,12.0
1979-03-06 22:01:46.360 ,2,1,4.,12.0,2.,12.0,0.,12.0,0.,12.0
1979-03-06 22:01:58.360 ,0,0,7.,12.0,0.,12.0,0.,12.0,0.,12.0
1979-03-06 22:02:10.360 ,0,0,4.,12.0,1.,12.0,0.,12.0,0.,12.0
1979-03-06 22:02:17.560 ,1,0,,0,,0,,0,,0
1979-03-06 22:02:29.560 ,1,0,,0,,0,,0,,0
1979-03-06 22:02:22.360 ,0,1,1.,12.0,0.,12.0,0.,12.0,0.,12.0
1979-03-06 22:02:34.360 ,0,1,3.,12.0,1.,12.0,0.,12.0,0.,12.0
1979-03-06 22:02:46.360 ,0,1,1.,12.0,1.,12.0,0.,12.0,0.,12.0
1979-03-06 22:02:58.360 ,0,1,2.,12.0,0.,12.0,0.,12.0,0.,12.0
1979-03-06 22:03:10.360 ,1,1,1.,12.0,0.,12.0,0.,12.0,0.,12.0
1979-03-06 22:03:22.360 ,1,1,3.,12.0,2.,12.0,0.,12.0,0.,12.0
1979-03-06 22:03:34.360 ,2,1,2.,12.0,1.,12.0,0.,12.0,0.,12.0
1979-03-06 22:03:46.360 ,2,1,5.,12.0,0.,12.0,0.,12.0,0.,12.0
1979-03-06 22:03:58.360 ,3,1,7.,12.0,0.,12.0,0.,12.0,0.,12.0
1979-03-06 22:04:10.360 ,3,1,12.,12.0,4.,12.0,0.,12.0,0.,12.0
1979-03-06 22:04:22.360 ,4,1,17.,12.0,1.,12.0,0.,12.0,0.,12.0
1979-03-06 22:04:34.360 ,4,1,21.,12.0,6.,12.0,0.,12.0,0.,12.0
1979-03-06 22:04:46.360 ,5,1,24.,12.0,2.,12.0,0.,12.0,0.,12.0
1979-03-06 22:04:58.360 ,5,1,14.,12.0,3.,12.0,0.,12.0,0.,12.0
1979-03-06 22:05:10.360 ,6,1,33.,12.0,1.,12.0,0.,12.0,0.,12.0
1979-03-06 22:05:22.360 ,6,1,11.,12.0,3.,12.0,0.,12.0,0.,12.0
1979-03-06 22:05:34.360 ,7,1,5.,12.0,1.,12.0,0.,12.0,0.,12.0
1979-03-06 22:05:46.360 ,7,1,8.,12.0,0.,12.0,0.,12.0,0.,12.0
1979-03-06 22:05:58.360 ,7,1,0.,12.0,0.,12.0,0.,12.0,0.,12.0
1979-03-06 22:06:10.360 ,7,1,0.,12.0,0.,12.0,0.,12.0,0.,12.0
1979-03-06 22:06:22.360 ,6,1,0.,12.0,0.,12.0,0.,12.0,0.,12.0
1979-03-06 22:06:34.360 ,6,1,11.,12.0,1.,12.0,0.,12.0,0.,12.0
1979-03-06 22:06:46.360 ,5,1,11.,12.0,2.,12.0,0.,12.0,0.,12.0
1979-03-06 22:06:58.360 ,5,1,11.,12.0,3.,12.0,0.,12.0,0.,12.0
1979-03-06 22:07:10.360 ,4,1,20.,12.0,5.,12.0,0.,12.0,1.,12.0
1979-03-06 22:07:22.360 ,4,1,21.,12.0,3.,12.0,0.,12.0,1.,12.0
1979-03-06 22:07:34.360 ,0,0,23.,12.0,2.,12.0,0.,12.0,0.,12.0
1979-03-06 22:07:46.360 ,0,0,22.,12.0,5.,12.0,0.,12.0,0.,12.0
1979-03-06 22:08:05.560 ,0,0,,0,,0,,0,,0
1979-03-06 22:08:17.560 ,0,0,10.,12.0,4.,12.0,0.,12.0,0.,12.0
1979-03-06 22:08:22.360 ,1,1,13.,12.0,1.,12.0,0.,12.0,0.,12.0
1979-03-06 22:08:34.360 ,1,1,6.,12.0,2.,12.0,0.,12.0,0.,12.0
1979-03-06 22:08:46.360 ,0,1,7.,12.0,2.,12.0,0.,12.0,0.,12.0
1979-03-06 22:08:58.360 ,0,1,4.,12.0,0.,12.0,0.,12.0,0.,12.0
1979-03-06 22:09:10.360 ,0,1,3.,12.0,1.,12.0,0.,12.0,0.,12.0
1979-03-06 22:09:22.360 ,0,1,1.,12.0,0.,12.0,0.,12.0,0.,12.0
1979-03-06 22:09:34.360 ,1,1,4.,12.0,0.,12.0,0.,12.0,0.,12.0
1979-03-06 22:09:46.360 ,1,1,6.,12.0,0.,12.0,0.,12.0,0.,12.0
1979-03-06 22:09:58.360 ,2,1,4.,12.0,2.,12.0,0.,12.0,0.,12.0
1979-03-06 22:10:10.360 ,2,1,6.,12.0,4.,12.0,0.,12.0,0.,12.0
1979-03-06 22:10:22.360 ,3,1,8.,12.0,3.,12.0,0.,12.0,0.,12.0
1979-03-06 22:10:34.360 ,3,1,13.,12.0,1.,12.0,0.,12.0,0.,12.0
1979-03-06 22:10:46.360 ,4,1,12.,12.0,4.,12.0,0.,12.0,0.,12.0
1979-03-06 22:10:58.360 ,4,1,17.,12.0,5.,12.0,0.,12.0,0.,12.0
1979-03-06 22:11:10.360 ,5,1,20.,12.0,7.,12.0,0.,12.0,0.,12.0
1979-03-06 22:11:22.360 ,5,1,24.,12.0,3.,12.0,0.,12.0,0.,12.0
1979-03-06 22:11:34.360 ,6,1,27.,12.0,1.,12.0,0.,12.0,0.,12.0
1979-03-06 22:11:46.360 ,6,1,12.,12.0,2.,12.0,0.,12.0,0.,12.0
1979-03-06 22:11:58.360 ,7,1,7.,12.0,0.,12.0,0.,12.0,0.,12.0
1979-03-06 22:12:10.360 ,7,1,1.,12.0,1.,12.0,0.,12.0,0.,12.0
1979-03-06 22:12:22.360 ,7,1,0.,12.0,0.,12.0,0.,12.0,0.,12.0
1979-03-06 22:12:34.360 ,7,1,0.,12.0,0.,12.0,0.,12.0,0.,12.0
1979-03-06 22:12:46.360 ,6,1,0.,12.0,0.,12.0,0.,12.0,0.,12.0
1979-03-06 22:12:58.360 ,6,1,5.,12.0,0.,12.0,0.,12.0,0.,12.0
1979-03-06 22:13:10.360 ,5,1,8.,12.0,2.,12.0,0.,12.0,0.,12.0
1979-03-06 22:13:22.360 ,5,1,17.,12.0,1.,12.0,0.,12.0,0.,12.0
1979-03-06 22:13:34.360 ,4,1,28.,12.0,2.,12.0,0.,12.0,0.,12.0
1979-03-06 22:13:46.360 ,4,1,29.,12.0,3.,12.0,0.,12.0,0.,12.0
1979-03-06 22:13:58.360 ,3,1,30.,12.0,7.,12.0,0.,12.0,0.,12.0
1979-03-06 22:14:10.360 ,3,1,26.,12.0,7.,12.0,0.,12.0,0.,12.0
1979-03-06 22:14:22.360 ,2,1,19.,12.0,4.,12.0,0.,12.0,0.,12.0
1979-03-06 22:14:34.360 ,2,1,11.,12.0,3.,12.0,0.,12.0,0.,12.0
1979-03-06 22:14:46.360 ,1,1,6.,12.0,4.,12.0,0.,12.0,0.,12.0
1979-03-06 22:14:58.360 ,1,1,6.,12.0,1.,12.0,0.,12.0,0.,12.0
1979-03-06 22:15:10.360 ,0,1,7.,12.0,1.,12.0,0.,12.0,0.,12.0
1979-03-06 22:15:22.360 ,0,1,5.,12.0,2.,12.0,0.,12.0,0.,12.0
1979-03-06 22:15:34.360 ,0,1,2.,12.0,0.,12.0,0.,12.0,0.,12.0
1979-03-06 22:15:46.360 ,0,1,6.,12.0,2.,12.0,0.,12.0,0.,12.0
1979-03-06 22:15:58.360 ,1,1,5.,12.0,3.,12.0,0.,12.0,0.,12.0
1979-03-06 22:16:10.360 ,1,1,7.,12.0,0.,12.0,0.,12.0,0.,12.0
1979-03-06 22:16:22.360 ,2,1,4.,12.0,0.,12.0,0.,12.0,0.,12.0
1979-03-06 22:16:34.360 ,2,1,8.,12.0,2.,12.0,0.,12.0,0.,12.0
1979-03-06 22:16:46.360 ,3,1,11.,12.0,1.,12.0,0.,12.0,0.,12.0
1979-03-06 22:16:58.360 ,3,1,24.,12.0,5.,12.0,0.,12.0,0.,12.0
1979-03-06 22:17:10.360 ,4,1,26.,12.0,6.,12.0,0.,12.0,0.,12.0
1979-03-06 22:17:22.360 ,4,1,34.,12.0,7.,12.0,0.,12.0,0.,12.0
1979-03-06 22:17:34.360 ,5,1,36.,12.0,11.,12.0,0.,12.0,0.,12.0
1979-03-06 22:17:46.360 ,5,1,42.,12.0,6.,12.0,0.,12.0,0.,12.0
1979-03-06 22:17:58.360 ,6,1,37.,12.0,3.,12.0,0.,12.0,0.,12.0
1979-03-06 22:18:10.360 ,6,1,11.,12.0,5.,12.0,0.,12.0,0.,12.0
1979-03-06 22:18:22.360 ,7,1,11.,12.0,1.,12.0,0.,12.0,0.,12.0
1979-03-06 22:18:34.360 ,7,1,4.,12.0,2.,12.0,0.,12.0,0.,12.0
1979-03-06 22:18:46.360 ,7,1,0.,12.0,0.,12.0,0.,12.0,0.,12.0
1979-03-06 22:18:58.360 ,7,1,0.,12.0,0.,12.0,0.,12.0,0.,12.0
1979-03-06 22:19:10.360 ,6,1,0.,12.0,0.,12.0,0.,12.0,0.,12.0
1979-03-06 22:19:22.360 ,6,1,11.,12.0,0.,12.0,0.,12.0,0.,12.0
1979-03-06 22:19:34.360 ,5,1,14.,12.0,2.,12.0,0.,12.0,0.,12.0
1979-03-06 22:19:46.360 ,5,1,36.,12.0,4.,12.0,0.,12.0,0.,12.0
1979-03-06 22:19:58.360 ,4,1,25.,12.0,9.,12.0,0.,12.0,0.,12.0
1979-03-06 22:20:10.360 ,4,1,45.,12.0,12.,12.0,0.,12.0,0.,12.0
1979-03-06 22:20:22.360 ,3,1,20.,12.0,10.,12.0,0.,12.0,0.,12.0
1979-03-06 22:20:34.360 ,3,1,36.,12.0,11.,12.0,0.,12.0,0.,12.0
1979-03-06 22:20:46.360 ,2,1,26.,12.0,5.,12.0,0.,12.0,0.,12.0
1979-03-06 22:20:58.360 ,2,1,21.,12.0,13.,12.0,0.,12.0,0.,12.0
1979-03-06 22:21:10.360 ,1,1,16.,12.0,6.,12.0,0.,12.0,0.,12.0
1979-03-06 22:21:22.360 ,1,1,10.,12.0,2.,12.0,0.,12.0,0.,12.0
1979-03-06 22:21:34.360 ,0,1,3.,12.0,6.,12.0,0.,12.0,0.,12.0
1979-03-06 22:21:46.360 ,0,1,6.,12.0,1.,12.0,0.,12.0,0.,12.0
1979-03-06 22:21:58.360 ,0,1,6.,12.0,2.,12.0,0.,12.0,0.,12.0
1979-03-06 22:22:10.360 ,0,1,7.,12.0,3.,12.0,0.,12.0,0.,12.0
1979-03-06 22:22:22.360 ,1,1,7.,12.0,1.,12.0,0.,12.0,0.,12.0
1979-03-06 22:22:34.360 ,1,1,12.,12.0,1.,12.0,0.,12.0,0.,12.0
1979-03-06 22:22:46.360 ,2,1,4.,12.0,1.,12.0,0.,12.0,0.,12.0
1979-03-06 22:22:58.360 ,2,1,21.,12.0,3.,12.0,0.,12.0,0.,12.0
1979-03-06 22:23:10.360 ,3,1,15.,12.0,2.,12.0,0.,12.0,0.,12.0
1979-03-06 22:23:22.360 ,3,1,26.,12.0,11.,12.0,0.,12.0,0.,12.0
1979-03-06 22:23:34.360 ,4,1,28.,12.0,5.,12.0,0.,12.0,0.,12.0
1979-03-06 22:23:46.360 ,4,1,43.,12.0,5.,12.0,0.,12.0,0.,12.0
1979-03-06 22:23:58.360 ,5,1,44.,12.0,11.,12.0,0.,12.0,1.,12.0
1979-03-06 22:24:10.360 ,5,1,40.,12.0,10.,12.0,0.,12.0,0.,12.0
1979-03-06 22:24:22.360 ,6,1,40.,12.0,7.,12.0,0.,12.0,0.,12.0
1979-03-06 22:24:34.360 ,6,1,18.,12.0,4.,12.0,0.,12.0,0.,12.0
1979-03-06 22:24:46.360 ,7,1,9.,12.0,5.,12.0,0.,12.0,0.,12.0
1979-03-06 22:24:58.360 ,7,1,6.,12.0,0.,12.0,0.,12.0,0.,12.0
1979-03-06 22:25:10.360 ,7,1,0.,12.0,0.,12.0,0.,12.0,0.,12.0
1979-03-06 22:25:22.360 ,7,1,0.,12.0,0.,12.0,0.,12.0,0.,12.0
1979-03-06 22:25:34.360 ,6,1,0.,12.0,0.,12.0,0.,12.0,0.,12.0
1979-03-06 22:25:46.360 ,6,1,7.,12.0,2.,12.0,0.,12.0,0.,12.0
1979-03-06 22:25:58.360 ,5,1,10.,12.0,1.,12.0,0.,12.0,0.,12.0
1979-03-06 22:26:10.360 ,5,1,38.,12.0,4.,12.0,0.,12.0,0.,12.0
1979-03-06 22:26:22.360 ,4,1,51.,12.0,8.,12.0,0.,12.0,0.,12.0
1979-03-06 22:26:34.360 ,4,1,46.,12.0,9.,12.0,0.,12.0,1.,12.0
1979-03-06 22:26:46.360 ,3,1,52.,12.0,8.,12.0,0.,12.0,0.,12.0
1979-03-06 22:26:58.360 ,3,1,37.,12.0,7.,12.0,0.,12.0,0.,12.0
1979-03-06 22:27:10.360 ,2,1,33.,12.0,7.,12.0,0.,12.0,0.,12.0